TimeCDT,TemperatureF,Dew PointF,Humidity,Sea Level PressureIn,VisibilityMPH,Wind Direction,Wind SpeedMPH,Gust SpeedMPH,PrecipitationIn,Events,Conditions,WindDirDegrees,DateUTC
12:58 AM,65.8,63.0,90,30.04,10.0,ENE,4.6,-,N/A,,Scattered Clouds,70,2013-10-01 05:58:00
1:58 AM,64.9,62.2,91,30.04,10.0,ENE,5.8,-,N/A,,Mostly Cloudy,60,2013-10-01 06:58:00
2:58 AM,64.4,62.6,94,30.03,10.0,ENE,5.8,-,N/A,,Clear,70,2013-10-01 07:58:00
3:58 AM,64.2,62.2,93,30.04,10.0,NE,3.5,-,N/A,,Mostly Cloudy,50,2013-10-01 08:58:00
4:55 AM,64.4,60.8,88,30.05,10.0,NNE,2.3,-,N/A,,Clear,30,2013-10-01 09:55:00
5:58 AM,63.5,61.5,93,30.07,10.0,NNE,4.6,-,N/A,,Clear,30,2013-10-01 10:58:00
6:58 AM,63.1,61.3,94,30.09,10.0,NE,6.9,-,N/A,,Clear,50,2013-10-01 11:58:00
7:58 AM,66.4,62.8,88,30.10,10.0,ENE,6.9,-,N/A,,Clear,60,2013-10-01 12:58:00
8:58 AM,71.6,63.1,75,30.11,10.0,East,9.2,-,N/A,,Clear,90,2013-10-01 13:58:00
9:58 AM,75.4,63.9,67,30.12,10.0,East,6.9,-,N/A,,Clear,90,2013-10-01 14:58:00
10:58 AM,79.2,65.7,63,30.11,10.0,ESE,4.6,-,N/A,,Clear,110,2013-10-01 15:58:00
11:58 AM,79.3,66.4,64,30.09,10.0,ESE,6.9,-,N/A,,Partly Cloudy,110,2013-10-01 16:58:00
12:58 PM,81.0,65.8,60,30.07,10.0,East,8.1,-,N/A,,Mostly Cloudy,80,2013-10-01 17:58:00
1:58 PM,85.3,66.0,52,30.04,10.0,ENE,9.2,-,N/A,,Partly Cloudy,60,2013-10-01 18:58:00
2:58 PM,83.3,65.5,55,30.03,10.0,East,5.8,-,N/A,,Mostly Cloudy,80,2013-10-01 19:58:00
3:58 PM,85.1,64.8,50,30.03,10.0,East,5.8,-,N/A,,Scattered Clouds,80,2013-10-01 20:58:00
4:58 PM,83.1,65.1,54,30.02,10.0,East,5.8,-,N/A,,Partly Cloudy,80,2013-10-01 21:58:00
5:58 PM,79.3,66.7,65,30.03,10.0,NE,4.6,-,N/A,,Clear,50,2013-10-01 22:58:00
6:58 PM,76.3,67.5,74,30.04,10.0,NNE,5.8,-,N/A,,Mostly Cloudy,30,2013-10-01 23:58:00
7:58 PM,73.9,66.6,78,30.06,10.0,NE,6.9,-,N/A,,Clear,40,2013-10-02 00:58:00
8:58 PM,72.1,67.3,85,30.08,10.0,NE,4.6,-,N/A,,Mostly Cloudy,50,2013-10-02 01:58:00
9:58 PM,72.9,67.5,83,30.09,10.0,ENE,5.8,-,N/A,,Overcast,60,2013-10-02 02:58:00
10:58 PM,72.7,67.3,83,30.09,10.0,ENE,4.6,-,N/A,,Overcast,70,2013-10-02 03:58:00
11:58 PM,70.3,66.0,86,30.08,10.0,NE,4.6,-,N/A,,Clear,50,2013-10-02 04:58:00